• In Uzbekistan
  • List of Countries
  • For 7 days
  • Water Temperature
  • Weather Map
  • Weather Widgets
  • user-avatar
    Login

    Hourly Weather El Bosque

    Today, 17 September, Tuesday

    Time Temperature Precipitation Wind Pressure Humidity
    00:00 +20°C° 0.3 mm 1 mps 664 mmHg 97%
    01:00 +20°C° 0 mm 1 mps 664 mmHg 97%
    02:00 +19°C° 0 mm 1 mps 664 mmHg 97%
    03:00 +19°C° 0 mm 1 mps 663 mmHg 97%
    04:00 +19°C° 0 mm 1 mps 663 mmHg 96%
    05:00 +19°C° 0 mm 1 mps 664 mmHg 96%
    06:00 +19°C° 0 mm 1 mps 664 mmHg 96%
    07:00 +21°C° 0 mm 1 mps 665 mmHg 87%
    08:00 +21°C° 0 mm 0 mps 666 mmHg 78%
    09:00 +24°C° 0 mm 0 mps 667 mmHg 69%
    10:00 +26°C° 0.3 mm 1 mps 667 mmHg 69%
    11:00 +27°C° 0.3 mm 1 mps 666 mmHg 69%
    12:00 +28°C° 0.3 mm 1 mps 666 mmHg 69%
    13:00 +27°C° 2.1 mm 1 mps 665 mmHg 77%
    14:00 +26°C° 2.1 mm 1 mps 664 mmHg 86%
    15:00 +25°C° 2.1 mm 1 mps 663 mmHg 95%
    16:00 +22°C° 1.7 mm 0 mps 663 mmHg 96%
    17:00 +21°C° 1.7 mm 0 mps 663 mmHg 96%
    18:00 +20°C° 1.7 mm 0 mps 663 mmHg 97%
    19:00 +20°C° 2 mm 0 mps 664 mmHg 97%
    20:00 +21°C° 2 mm 1 mps 664 mmHg 97%
    21:00 +21°C° 2 mm 1 mps 664 mmHg 96%
    22:00 +20°C° 0.4 mm 1 mps 664 mmHg 96%
    23:00 +20°C° 0.4 mm 1 mps 664 mmHg 95%

    Tomorrow, 18 September, Wednesday

    Time Temperature Precipitation Wind Pressure Humidity
    00:00 +18°C° 0.4 mm 0 mps 664 mmHg 95%
    01:00 +18°C° 0 mm 0 mps 664 mmHg 95%
    02:00 +17°C° 0 mm 0 mps 664 mmHg 95%
    03:00 +17°C° 0 mm 0 mps 663 mmHg 95%
    04:00 +19°C° 0 mm 1 mps 663 mmHg 94%
    05:00 +19°C° 0 mm 1 mps 663 mmHg 94%
    06:00 +19°C° 0 mm 1 mps 663 mmHg 94%
    07:00 +21°C° 0 mm 1 mps 664 mmHg 85%
    08:00 +22°C° 0 mm 0 mps 665 mmHg 77%
    09:00 +24°C° 0 mm 0 mps 666 mmHg 68%
    10:00 +27°C° 0 mm 1 mps 666 mmHg 63%
    11:00 +29°C° 0 mm 1 mps 666 mmHg 58%
    12:00 +30°C° 0 mm 1 mps 666 mmHg 53%
    13:00 +29°C° 0.6 mm 1 mps 665 mmHg 60%
    14:00 +28°C° 0.6 mm 1 mps 665 mmHg 68%
    15:00 +27°C° 0.6 mm 1 mps 664 mmHg 76%
    16:00 +26°C° 1.3 mm 1 mps 663 mmHg 83%
    17:00 +22°C° 1.3 mm 0 mps 663 mmHg 90%
    18:00 +21°C° 1.3 mm 0 mps 663 mmHg 97%
    19:00 +20°C° 1.3 mm 0 mps 663 mmHg 96%
    20:00 +21°C° 1.3 mm 1 mps 663 mmHg 96%
    21:00 +21°C° 1.3 mm 1 mps 664 mmHg 96%
    22:00 +21°C° 0.8 mm 1 mps 664 mmHg 96%
    23:00 +21°C° 0.8 mm 1 mps 664 mmHg 96%

    Day after tomorrow, 19 September, Thursday

    Time Temperature Precipitation Wind Pressure Humidity
    00:00 +20°C° 0.8 mm 1 mps 664 mmHg 96%
    01:00 +20°C° 0.1 mm 1 mps 663 mmHg 95%
    02:00 +20°C° 0.1 mm 1 mps 663 mmHg 94%
    03:00 +20°C° 0.1 mm 1 mps 662 mmHg 93%
    04:00 +19°C° 0 mm 1 mps 662 mmHg 93%
    05:00 +19°C° 0 mm 1 mps 662 mmHg 92%
    06:00 +19°C° 0 mm 1 mps 662 mmHg 91%
    07:00 +21°C° 0 mm 1 mps 663 mmHg 82%
    08:00 +24°C° 0 mm 1 mps 664 mmHg 73%
    09:00 +24°C° 0 mm 0 mps 665 mmHg 64%
    10:00 +27°C° 0.1 mm 1 mps 665 mmHg 61%
    11:00 +29°C° 0.1 mm 1 mps 665 mmHg 57%
    12:00 +30°C° 0.1 mm 1 mps 665 mmHg 53%
    13:00 +29°C° 0.5 mm 1 mps 664 mmHg 60%
    14:00 +28°C° 0.5 mm 1 mps 663 mmHg 67%
    15:00 +28°C° 0.5 mm 1 mps 662 mmHg 74%
    16:00 +26°C° 0.8 mm 1 mps 662 mmHg 82%
    17:00 +24°C° 0.8 mm 1 mps 662 mmHg 89%
    18:00 +21°C° 0.8 mm 0 mps 661 mmHg 97%
    19:00 +20°C° 0.2 mm 0 mps 662 mmHg 97%
    20:00 +21°C° 0.2 mm 1 mps 662 mmHg 97%
    21:00 +21°C° 0.2 mm 1 mps 663 mmHg 97%
    22:00 +20°C° 0 mm 1 mps 662 mmHg 97%
    23:00 +20°C° 0 mm 1 mps 662 mmHg 97%

    20 September, Friday

    Time Temperature Precipitation Wind Pressure Humidity
    00:00 +20°C° 0 mm 1 mps 662 mmHg 96%
    01:00 +19°C° 0 mm 1 mps 662 mmHg 96%
    02:00 +19°C° 0 mm 1 mps 662 mmHg 95%
    03:00 +19°C° 0 mm 1 mps 662 mmHg 95%
    04:00 +19°C° 0 mm 1 mps 662 mmHg 95%
    05:00 +19°C° 0 mm 1 mps 662 mmHg 95%
    06:00 +19°C° 0 mm 1 mps 662 mmHg 95%
    07:00 +21°C° 0 mm 1 mps 663 mmHg 86%
    08:00 +24°C° 0 mm 1 mps 664 mmHg 78%
    09:00 +26°C° 0 mm 1 mps 665 mmHg 69%
    10:00 +27°C° 0.2 mm 1 mps 665 mmHg 66%
    11:00 +28°C° 0.2 mm 1 mps 665 mmHg 63%
    12:00 +29°C° 0.2 mm 1 mps 665 mmHg 60%
    13:00 +27°C° 1 mm 1 mps 664 mmHg 71%
    14:00 +26°C° 1 mm 1 mps 663 mmHg 81%
    15:00 +25°C° 1 mm 1 mps 662 mmHg 91%
    16:00 +24°C° 0.9 mm 1 mps 662 mmHg 93%
    17:00 +21°C° 0.9 mm 0 mps 662 mmHg 95%
    18:00 +20°C° 0.9 mm 0 mps 662 mmHg 97%
    19:00 +19°C° 0.2 mm 0 mps 663 mmHg 97%
    20:00 +20°C° 0.2 mm 1 mps 663 mmHg 97%
    21:00 +20°C° 0.2 mm 1 mps 664 mmHg 97%
    22:00 +19°C° 0 mm 1 mps 663 mmHg 97%
    23:00 +19°C° 0 mm 1 mps 663 mmHg 96%

    21 September, Saturday

    Time Temperature Precipitation Wind Pressure Humidity
    00:00 +19°C° 0 mm 1 mps 663 mmHg 96%
    01:00 +18°C° 0 mm 1 mps 663 mmHg 95%
    02:00 +18°C° 0 mm 1 mps 663 mmHg 95%
    03:00 +18°C° 0 mm 1 mps 662 mmHg 94%
    04:00 +18°C° 0 mm 1 mps 663 mmHg 94%
    05:00 +18°C° 0 mm 1 mps 663 mmHg 93%
    06:00 +18°C° 0 mm 1 mps 663 mmHg 93%
    07:00 +20°C° 0 mm 1 mps 664 mmHg 83%
    08:00 +23°C° 0 mm 1 mps 665 mmHg 73%
    09:00 +24°C° 0 mm 0 mps 666 mmHg 63%
    10:00 +27°C° 0.1 mm 1 mps 666 mmHg 61%
    11:00 +28°C° 0.1 mm 1 mps 666 mmHg 59%
    12:00 +28°C° 0.1 mm 1 mps 665 mmHg 58%
    13:00 +27°C° 1.9 mm 1 mps 664 mmHg 70%
    14:00 +26°C° 1.9 mm 1 mps 663 mmHg 82%
    15:00 +24°C° 1.9 mm 1 mps 662 mmHg 94%
    16:00 +23°C° 1.5 mm 1 mps 662 mmHg 95%
    17:00 +23°C° 1.5 mm 1 mps 662 mmHg 96%
    18:00 +20°C° 1.5 mm 0 mps 662 mmHg 98%
    19:00 +19°C° 0.6 mm 0 mps 663 mmHg 97%
    20:00 +21°C° 0.6 mm 1 mps 663 mmHg 97%
    21:00 +20°C° 0.6 mm 1 mps 664 mmHg 97%
    22:00 +20°C° 0 mm 1 mps 664 mmHg 97%
    23:00 +20°C° 0 mm 1 mps 664 mmHg 97%

    22 September, Sunday

    Time Temperature Precipitation Wind Pressure Humidity
    00:00 +19°C° 0 mm 1 mps 664 mmHg 97%
    01:00 +19°C° 0 mm 1 mps 663 mmHg 97%
    02:00 +19°C° 0 mm 1 mps 663 mmHg 97%
    03:00 +19°C° 0 mm 1 mps 663 mmHg 96%
    04:00 +18°C° 0 mm 1 mps 663 mmHg 96%
    05:00 +18°C° 0 mm 1 mps 663 mmHg 96%
    06:00 +18°C° 0 mm 1 mps 663 mmHg 96%
    07:00 +21°C° 0 mm 1 mps 664 mmHg 87%
    08:00 +21°C° 0 mm 0 mps 665 mmHg 78%
    09:00 +24°C° 0 mm 0 mps 666 mmHg 69%
    10:00 +27°C° 0.1 mm 1 mps 666 mmHg 66%
    11:00 +28°C° 0.1 mm 1 mps 666 mmHg 63%
    12:00 +29°C° 0.1 mm 1 mps 666 mmHg 59%
    13:00 +28°C° 0.7 mm 1 mps 665 mmHg 68%
    14:00 +26°C° 0.7 mm 1 mps 664 mmHg 76%
    15:00 +25°C° 0.7 mm 1 mps 663 mmHg 85%
    16:00 +24°C° 0.8 mm 1 mps 663 mmHg 89%
    17:00 +23°C° 0.8 mm 1 mps 662 mmHg 94%
    18:00 +20°C° 0.8 mm 0 mps 662 mmHg 98%
    19:00 +19°C° 0.4 mm 0 mps 663 mmHg 98%
    20:00 +19°C° 0.4 mm 0 mps 663 mmHg 98%
    21:00 +19°C° 0.4 mm 0 mps 663 mmHg 98%
    22:00 +20°C° 0.2 mm 1 mps 663 mmHg 98%
    23:00 +20°C° 0.2 mm 1 mps 664 mmHg 97%
    Show more